Oshkosh, WI

2:14 AM CST on December 03, 2016 (GMT -0600)
Wittman Regional

Weather History for KOSH - August, 2014

Change the Weather History Date:

Saturday, August 23, 2014

  Actual Average Record
Temperature  
Mean Temperature 74 °F -  
Max Temperature 78 °F 77 °F 95 °F (1948)
Min Temperature 71 °F 57 °F 43 °F (1952)
Cooling Degree Days 10    
Growing Degree Days 24 (Base 50)    
Moisture  
Dew Point 70 °F    
Average Humidity 90    
Maximum Humidity 97    
Minimum Humidity 81    
Precipitation  
Precipitation 0.00 in - - ()
Sea Level Pressure  
Sea Level Pressure 29.98 in    
Wind  
Wind Speed 5 mph (ESE)    
Max Wind Speed 13 mph    
Max Gust Speed -    
Visibility 5 miles    
Events Thunderstorm    
Averages and records for this station are not official NWS values.
T = Trace of Precipitation, MM = Missing Value Source: NWS Daily Summary

Daily Weather History Graph

Daily Weather History Graph

Search for Another Location

Airport or City:

Trip Planner

Search our weather history database for the weather conditions in past years. The results will help you decide how hot, cold, wet, or windy it might be!

Date:

Astronomy

Aug. 23, 2014 Rise Set
Actual Time 6:07 AM CDT 7:45 PM CDT
Civil Twilight 5:36 AM CDT 8:15 PM CDT
Nautical Twilight 4:59 AM CDT 8:52 PM CDT
Astronomical Twilight 4:19 AM CDT 9:32 PM CDT
Moon 4:21 AM CDT (8/23) 6:30 PM CDT (8/23)
Length of Visible Light 14h 39m
Length of Day
13h 38m
Waning Crescent, 3% of the Moon is Illuminated
Aug 23
Waning Crescent
Aug 25
New
Sep 2
First Quarter
Sep 8
Full
Sep 15
Last Quarter

Hourly Weather History & Observations

Time (CDT) Temp. Dew Point Humidity Pressure Visibility Wind Dir Wind Speed Gust Speed Precip Events Conditions
12:53 AM 73.0 °F 70.0 °F 90% 29.96 in 6.0 mi NE 4.6 mph - N/A   Overcast
1:11 AM 72.0 °F 70.0 °F 93% 29.99 in 5.0 mi East 4.6 mph - N/A   Overcast
1:22 AM 72.0 °F 70.0 °F 93% 29.99 in 5.0 mi SSW 4.6 mph - N/A Thunderstorm Overcast
1:31 AM 72.0 °F 70.0 °F 93% 29.99 in 4.0 mi ESE 3.5 mph - N/A   Overcast
1:38 AM 72.0 °F 70.0 °F 93% 29.99 in 4.0 mi Calm Calm - N/A Thunderstorm Overcast
1:53 AM 71.1 °F 70.0 °F 96% 29.95 in 4.0 mi ESE 3.5 mph - N/A   Mostly Cloudy
2:35 AM 72.0 °F 70.0 °F 93% 29.99 in 4.0 mi East 3.5 mph - N/A   Mostly Cloudy
2:53 AM 71.1 °F 70.0 °F 96% 29.95 in 3.0 mi ENE 3.5 mph - N/A   Partly Cloudy
3:33 AM 71.1 °F 70.0 °F 96% 29.99 in 3.0 mi Calm Calm - N/A   Scattered Clouds
4:34 AM 72.0 °F 71.1 °F 97% 29.99 in 3.0 mi ESE 4.6 mph - N/A   Overcast
4:46 AM 72.0 °F 71.1 °F 97% 29.98 in 3.0 mi ESE 4.6 mph - N/A   Overcast
4:53 AM 72.0 °F 71.1 °F 97% 29.94 in 3.0 mi Calm Calm - N/A   Overcast
6:26 AM 72.0 °F 70.0 °F 93% 29.98 in 3.0 mi East 4.6 mph - N/A   Overcast
6:34 AM 72.0 °F 70.0 °F 93% 29.98 in 2.5 mi East 4.6 mph - N/A   Overcast
6:53 AM 72.0 °F 70.0 °F 93% 29.95 in 2.5 mi East 3.5 mph - N/A   Overcast
7:36 AM 72.0 °F 71.1 °F 97% 30.00 in 3.0 mi ESE 3.5 mph - N/A   Overcast
7:53 AM 73.0 °F 71.1 °F 93% 29.96 in 3.0 mi South 3.5 mph - N/A   Overcast
8:53 AM 73.0 °F 71.1 °F 93% 29.97 in 3.0 mi SE 5.8 mph - N/A   Overcast
9:53 AM 73.9 °F 71.1 °F 91% 29.98 in 3.0 mi East 5.8 mph - N/A   Overcast
10:53 AM 75.0 °F 72.0 °F 90% 29.99 in 6.0 mi ESE 4.6 mph - N/A   Overcast
11:53 AM 75.9 °F 73.0 °F 91% 29.99 in 7.0 mi East 4.6 mph - N/A   Overcast
12:23 PM 77.0 °F 73.0 °F 88% 30.01 in 7.0 mi ESE 4.6 mph - N/A   Overcast
12:53 PM 78.1 °F 73.0 °F 84% 29.97 in 7.0 mi SE 6.9 mph - N/A   Overcast
1:34 PM 78.1 °F 73.0 °F 84% 30.01 in 7.0 mi SSE 8.1 mph - N/A   Overcast
1:53 PM 78.1 °F 73.0 °F 84% 29.98 in 7.0 mi SSE 12.7 mph - N/A   Overcast
2:53 PM 78.1 °F 72.0 °F 81% 29.96 in 8.0 mi SE 8.1 mph - N/A   Overcast
3:27 PM 78.1 °F 72.0 °F 81% 29.97 in 8.0 mi ESE 10.4 mph - N/A   Overcast
4:53 PM 75.0 °F 71.1 °F 87% 29.93 in 6.0 mi East 9.2 mph - N/A   Mostly Cloudy
5:53 PM 73.9 °F 70.0 °F 87% 29.96 in 6.0 mi SE 10.4 mph - N/A   Overcast
6:53 PM 73.9 °F 70.0 °F 87% 29.97 in 5.0 mi East 4.6 mph - N/A   Overcast
7:12 PM 73.9 °F 70.0 °F 87% 30.01 in 5.0 mi East 5.8 mph - N/A   Overcast
7:53 PM 73.9 °F 69.1 °F 85% 29.97 in 7.0 mi East 5.8 mph - N/A   Mostly Cloudy
8:05 PM 73.9 °F 69.1 °F 85% 30.01 in 8.0 mi East 5.8 mph - N/A   Scattered Clouds
8:53 PM 73.0 °F 69.1 °F 87% 29.99 in 10.0 mi ENE 5.8 mph - N/A   Clear
9:53 PM 72.0 °F 68.0 °F 87% 30.00 in 10.0 mi East 8.1 mph - N/A   Clear
10:53 PM 71.1 °F 66.0 °F 84% 30.00 in 10.0 mi East 8.1 mph - N/A   Scattered Clouds
11:53 PM 71.1 °F 66.0 °F 84% 30.00 in 10.0 mi East 5.8 mph - N/A   Clear